STARLINK-35524, 65914

Orbit data source: Space-Track

STARLINK-35524, 65914 is a payload satellite owned by SpaceX/Seattle (US) in LEO that was launched on Wed, 08 Oct 2025 UTC via an FALCON 9 launch vehicle from the Air Force Western Test Range (AFWTR). Payload-class satellites include a variety of spacecraft equipped with specific instruments for various scientific and technological missions. These include communications satellites like Starlink; space stations such as the ISS; scientific satellites like the Hubble; Earth observation satellites from companies like Planet Labs, Umbra, and HawkEye 360; GPS; miniature CubeSats for education and research; and military/defense satellites.

Loading next visibility...
Identifier
65914, 2025-225E
Orbit
LEO
Country
Flag of USUS
Related business
Manufacturer
SpaceX/Seattle
Mission
Operational Commercial Communications
Bus & Motor
STARLINK V2MO, Unknown motor
Mass
575 kg wet, ~530 kg dry
Launch date (UTC)
2025-10-08 (8 months ago)
Launch vehicle
FALCON 9
Launch site
Air Force Western Test Range (AFWTR)
Object type
Payload
Rocket body
Debris
Shape & HBR
Box + 2 Pan, 17.7 m
Radar Cross Section
36.964 m², Large (>1 m²)

Expand to show TLE details & history
Last TLE update: 10 hours ago

TLE from 10 hours ago
0 STARLINK-35524
1 65914U 25225E   26151.38312618  .00039629  00000-0  13426-2 0  9995
2 65914  53.1576 141.2353 0001260  67.1417 292.9716 15.30209679 37073
Epoch: 2026-05-31T09:11Z
TLE epoch observation values (Epoch: 2026-05-31T09:11:42.101Z)
Latitude
-0.0001°
Longitude
114.42421°
Altitude
475.749 km
Speed
7.629 km/s
True Right ascension
09h 24m 56s
True Declination
0° 00' 00"
Sunlit
Object was in daylight at epoch
Visualization orbit readout
Latitude
Unknown
Longitude
Unknown
Altitude
Unknown
Speed
Unknown
Apparent Right ascension
Unknown
Apparent Declination
Unknown
Sunlit
N/A
Visualization observer readout
Local Sidereal Time
05:00:09
Azimuth
Unknown
Elevation
Unknown
Doppler factor
Unknown
Orbital elements
Apogee altitude
476.307 km
Perigee altitude
474.579 km
Semi-major axis
6,853.58 km
Eccentricity
0.00013
Inclination
53.1576°
RAAN
141.2353°
Arg. of periapsis
67.1417°
True anomaly
292.95831°
Mean anomaly
292.9716°
Eccentric anomaly
292.96495°
Mean motion
3.82531 °/min
Orbital period
94.11 mins
BSTAR
0.0013426
Loading maneuver chart data...
Computing Atmospheric mass density...
Loading historical data...
Loading historical data...
Loading historical data...
Loading historical data...
Loading historical data...
Loading historical data...
Loading historical data...

Documentation

Showing up to 5 results
|